Погода в Эн-Набатии

Ливан     33°23′28″N   35°28′22″E
темп.,
°C
ветер,
м/с
пор.,
м/с
влажн.,
%
обл.,
%
осадки,
мм/ч
давл.,
гПа
погр.,
м
26 февраля, пт
пт2623:00+8св12850 0.0 102223
02:00+7всв11830 0.0 102124
05:00+7в11810 0.0 102124
08:00+12всв11610 0.0 1022138
11:00+15зсз21600 0.0 1022757
14:00+15сз43660 0.0 1020611
17:00+12ссз22760 0.0 101959
20:00+9св22770 0.0 101930
27 февраля, сб
сб2723:00+9всв12680 0.0 102029
02:00+8всв22720 0.0 101830
05:00+8всв12730 0.0 101831
08:00+13всв11520 0.0 1018104
11:00+16з22510 0.0 1018900
14:00+16сз32560 0.0 1016766
17:00+13ссз22750 0.0 101551
20:00+9ссв11740 0.0 101630
28 февраля, вс
вс2823:00+8ссв12720 0.0 101531
02:00+8ссв12740 0.0 101431
05:00+7св11760 0.0 101433
08:00+11сз12720 0.0 1015214
11:00+14зсз32630 0.0 1016727
14:00+14зсз32620 0.0 1015772
17:00+11сз22720 0.0 1015296
20:00+8в11830 0.0 101724
1 марта, пн
пн123:00+7юв12866 0.0 101731
02:00+10ююз238544 0.1 1017209
05:00+8юв228572 0.1 101742
08:00+10ю357683 0.1 1018565
11:00+13юз556571 0.1 10181040
14:00+12юз567983 0.5 1017735
17:00+11юз348496 0.8 1017540
20:00+8ююв239065 1.1 101742
2 марта, вт
вт223:00+9юв348755 0.3 1018113
02:00+9юв348270 0.4 1017129
05:00+9юв348890 0.4 1016178
08:00+10ююв588785 0.9 1017633
11:00+13ююз687186 0.4 10171213
14:00+12юз8108088 1.8 10161102
17:00+10юз698696 0.8 1016916
20:00+8ю489087 1.5 1017306